Tracking 18710 objects as of 29-June-2017
HD Live streaming from Space Station
objects crossing your sky now

COSMOS 469

Track COSMOS 469 now!
10-day predictions
COSMOS 469 is classified as:


NORAD ID: 5721
Int'l Code: 1971-117A
Perigee: 936.2 km
Apogee: 1,034.2 km
Inclination: 64.5 °
Period: 104.6 minutes
Semi major axis: 7356 km
RCS: 2.893 m2 (large)
Launch date: December 25, 1971
Source: Commonwealth of Independent States (former USSR) (CIS)
Launch site: TYURATAM MISSILE AND SPACE COMPLEX (TTMTR)
Your satellite tracking list
Your tracking list is empty





NASA's NSSDC Master Catalog

Two Line Element Set (TLE):
1  5721U 71117A   17179.59160394 -.00000082 +00000-0 +90750-5 0  9991
2  5721 064.4870 237.9773 0066605 275.4805 083.8652 13.76016088286411
Source of the keplerian elements: AFSPC